Location: Canazei
(46.4667°N, 11.7667°E)
Time: 23:28:11
(UTC+00:00)

Envisat - Pass Details

Date: 30 September 2021
Orbit: 764 x 766 km, 98.2° (Epoch: 20 October)

Event Time Altitude Azimuth Distance (km) Brightness Sun altitude
Rises 04:10:10 0° 16° (NNE) 3,242 6.6 -11.2°
Reaches altitude 10° 04:12:31 10° 21° (NNE) 2,311 5.9 -10.7°
Maximum altitude 04:17:33 59° 101° (E) 879 3.7 -9.9°
Drops below altitude 10° 04:22:33 10° 181° (S) 2,294 5.4 -9.0°
Sets 04:24:52 0° 185° (S) 3,215 6.1 -8.6°
